Tracking 17151 objects as of 4-May-2015
HD Live streaming from Space Station

DELTA 1 DEB

Track DELTA 1 DEB now!
10-day predictions
DELTA 1 DEB is classified as:


NORAD ID: 15205
Int'l Code: 1984-088E
Perigee: 555.8 km
Apogee: 3,862.0 km
Inclination: 28.7 °
Period: 131.8 minutes
Semi major axis: 8579 km
RCS: 0.0578 m2 (small)
Launch date: August 16, 1984
Source: United States (US)

Note: This is SATELLITE DEBRIS
Your satellite tracking list
Your tracking list is empty





NASA's NSSDC Master Catalog

Two Line Element Set (TLE):
1 15205U 84088E   15120.69187973  .00000684  00000-0  41271-3 0  9996
2 15205 028.7252 002.6368 1926743 014.2071 013.8445 10.92394586792665

Source of the keplerian elements: AFSPC

N2YO: 3378